Location: Unspecified
(0.0000°N, 0.0000°E)
Time: 21:51:38
(UTC+00:00)

N. Korean satellite - Pass Details

Date: 17 January 2018
Orbit: 458 x 515 km, 97.2° (Epoch: 23 January)

Event Time Altitude Azimuth Distance (km) Brightness Sun altitude
Rises 18:39:24 0° 182° (S) 2,624 10.6 -6.8°
Reaches altitude 10° 18:41:36 10° 190° (S) 1,731 9.8 -7.3°
Maximum altitude 18:45:06 38° 259° (W) 781 8.4 -8.2°
Drops below altitude 10° 18:48:32 10° 328° (NNW) 1,701 9.5 -9.0°
Sets 18:50:41 0° 336° (NNW) 2,572 10.3 -9.5°
